H1 CPF 2 NER 2023 9 20 9 263 01 glonass143 H2 2007501 9143 46805 2023 9 20 0 0 0 2023 9 23 23 45 0 900 1 1 0 0 0 1 H9 10 0 60207 0.00000 0 -18387820.984 -17268789.913 -3836515.297 10 0 60207 900.00000 0 -18687600.067 -17363729.222 -641195.183 10 0 60207 1800.00000 0 -18698521.729 -17175548.154 2566568.442 10 0 60207 2700.00000 0 -18386113.615 -16747394.742 5724534.156 10 0 60207 3600.00000 0 -17726948.591 -16129846.076 8771450.141 10 0 60207 4500.00000 0 -16709819.474 -15378610.770 11648238.782 10 0 60207 5400.00000 0 -15336414.436 -14552033.409 14299137.241 10 0 60207 6300.00000 0 -13621464.431 -13708506.323 16672772.247 10 0 60207 7200.00000 0 -11592356.024 -12903897.610 18723148.817 10 0 60207 8100.00000 0 -9288225.156 -12189103.281 20410534.477 10 0 60207 9000.00000 0 -6758568.764 -11607825.983 21702222.678 10 0 60207 9900.00000 0 -4061431.013 -11194673.033 22573161.457 10 0 60207 10800.00000 0 -1261238.286 -10973653.156 23006435.877 10 0 60207 11700.00000 0 1573628.608 -10957134.624 22993595.464 10 0 60207 12600.00000 0 4373425.717 -11145308.416 22534820.524 10 0 60207 13500.00000 0 7069694.722 -11526179.101 21638924.047 10 0 60207 14400.00000 0 9597860.751 -12076084.270 20323188.732 10 0 60207 15300.00000 0 11899672.549 -12760721.450 18613041.540 10 0 60207 16200.00000 0 13925384.626 -13536640.230 16541571.132 10 0 60207 17100.00000 0 15635591.312 -14353137.777 14148896.409 10 0 60207 18000.00000 0 17002636.695 -15154478.806 11481397.319 10 0 60207 18900.00000 0 18011541.843 -15882347.073 8590821.886 10 0 60207 19800.00000 0 18660410.602 -16478425.335 5533286.011 10 0 60207 20700.00000 0 18960296.984 -16886994.728 2368185.108 10 0 60207 21600.00000 0 18934539.811 -17057443.328 -842961.389 10 0 60207 22500.00000 0 18617592.764 -16946576.966 -4037709.884 10 0 60207 23400.00000 0 18053399.489 -16520633.456 -7153912.918 10 0 60207 24300.00000 0 17293382.798 -15756913.728 -10130935.346 10 0 60207 25200.00000 0 16394133.553 -14644959.466 -12910841.857 10 0 60207 26100.00000 0 15414897.611 -13187226.052 -15439531.772 10 0 60207 27000.00000 0 14414967.813 -11399221.092 -17667798.238 10 0 60207 27900.00000 0 13451091.953 -9309101.395 -19552290.645 10 0 60207 28800.00000 0 12575006.792 -6956744.348 -21056361.100 10 0 60207 29700.00000 0 11831202.669 -4392331.773 -22150778.418 10 0 60207 30600.00000 0 11255013.159 -1674504.839 -22814295.836 10 0 60207 31500.00000 0 10871110.323 1131833.322 -23034061.682 10 0 60207 32400.00000 0 10692468.663 3957976.094 -22805865.418 10 0 60207 33300.00000 0 10719840.979 6734030.901 -22134214.698 10 0 60207 34200.00000 0 10941767.594 9391587.161 -21032242.341 10 0 60207 35100.00000 0 11335117.916 11866324.200 -19521445.418 10 0 60207 36000.00000 0 11866140.788 14100451.155 -17631261.748 10 0 60207 36900.00000 0 12491978.717 16044878.083 -15398492.320 10 0 60207 37800.00000 0 13162581.492 17661028.723 -12866580.984 10 0 60207 38700.00000 0 13822937.945 18922220.476 -10084765.619 10 0 60207 39600.00000 0 14415531.194 19814555.209 -7107117.458 10 0 60207 40500.00000 0 14882913.337 20337285.079 -3991487.486 10 0 60207 41400.00000 0 15170290.603 20502639.591 -798380.624 10 0 60207 42300.00000 0 15228009.572 20335122.609 2410220.096 10 0 60207 43200.00000 0 15013839.345 19870310.340 5572056.299 10 0 60207 44100.00000 0 14494953.275 19153202.039 8625800.452 10 0 60207 45000.00000 0 13649526.535 18236193.839 11512241.997 10 0 60207 45900.00000 0 12467882.119 17176761.639 14175430.559 10 0 60207 46800.00000 0 10953136.719 16034950.860 16563754.441 10 0 60207 47700.00000 0 9121318.928 14870778.641 18630933.997 10 0 60207 48600.00000 0 7000954.109 13741657.331 20336911.379 10 0 60207 49500.00000 0 4632132.333 12699946.917 21648620.239 10 0 60207 50400.00000 0 2065097.121 11790738.412 22540621.288 10 0 60207 51300.00000 0 -641587.618 11049960.386 22995592.138 10 0 60207 52200.00000 0 -3423217.786 10502887.322 23004662.506 10 0 60207 53100.00000 0 -6211387.469 10163111.810 22567588.519 10 0 60207 54000.00000 0 -8936585.860 10032023.306 21692762.719 10 0 60207 54900.00000 0 -11530846.507 10098815.338 20397059.120 10 0 60207 55800.00000 0 -13930340.167 10341021.061 18705515.637 10 0 60207 56700.00000 0 -16077804.585 10725555.162 16650859.062 10 0 60207 57600.00000 0 -17924710.931 11210218.874 14272880.688 10 0 60207 58500.00000 0 -19433077.015 11745605.394 11617673.582 10 0 60207 59400.00000 0 -20576851.829 12277325.882 8736745.349 10 0 60207 60300.00000 0 -21342813.490 12748462.423 5686022.776 10 0 60207 61200.00000 0 -21730942.823 13102144.293 2524767.312 10 0 60207 62100.00000 0 -21754256.747 13284138.248 -685577.653 10 0 60207 63000.00000 0 -21438108.404 13245342.508 -3882585.073 10 0 60207 63900.00000 0 -20818983.551 12944077.841 -7004064.130 10 0 60207 64800.00000 0 -19942844.207 12348077.469 -9989277.253 10 0 60207 65700.00000 0 -18863089.858 11436090.190 -12780129.632 10 0 60207 66600.00000 0 -17638222.822 10199027.395 -15322307.180 10 0 60207 67500.00000 0 -16329316.991 8640604.112 -17566339.956 10 0 60207 68400.00000 0 -14997397.368 6777445.595 -19468569.794 10 0 60207 69300.00000 0 -13700841.519 4638653.784 -20992002.863 10 0 60207 70200.00000 0 -12492912.818 2264850.753 -22107030.493 10 0 60207 71100.00000 0 -11419529.578 -293261.657 -22792004.322 10 0 60207 72000.00000 0 -10517363.844 -2976766.436 -23033654.854 10 0 60207 72900.00000 0 -9812349.493 -5720742.950 -22827345.669 10 0 60207 73800.00000 0 -9318661.742 -8456733.661 -22177158.791 10 0 60207 74700.00000 0 -9038210.176 -11115363.656 -21095809.935 10 0 60207 75600.00000 0 -8960665.654 -13629004.308 -19604395.687 10 0 60207 76500.00000 0 -9064018.896 -15934370.686 -17731977.767 10 0 60207 77400.00000 0 -9315646.196 -17974945.048 -15515012.726 10 0 60207 78300.00000 0 -9673836.337 -19703126.146 -12996638.323 10 0 60207 79200.00000 0 -10089713.383 -21082015.545 -10225830.600 10 0 60207 80100.00000 0 -10509473.419 -22086767.335 -7256448.273 10 0 60207 81000.00000 0 -10876840.089 -22705445.939 -4146183.206 10 0 60207 81900.00000 0 -11135634.668 -22939357.396 -955437.636 10 0 60207 82800.00000 0 -11232351.654 -22802841.493 2253849.755 10 0 60207 83700.00000 0 -11118630.745 -22322534.791 5419405.830 10 0 60207 84600.00000 0 -10753520.589 -21536136.682 8479829.587 10 0 60207 85500.00000 0 -10105438.564 -20490731.305 11375779.806 10 0 60208 0.00000 0 -9153743.869 -19240736.725 14051120.656 10 0 60208 900.00000 0 -7889856.839 -17845567.214 16454004.783 10 0 60208 1800.00000 0 -6317878.339 -16367108.637 18537869.844 10 0 60208 2700.00000 0 -4454680.908 -14867110.357 20262334.704 10 0 60208 3600.00000 0 -2329468.158 -13404604.136 21593975.116 10 0 60208 4500.00000 0 17180.782 -12033456.741 22506966.132 10 0 60208 5400.00000 0 2534743.217 -10800157.960 22983579.316 10 0 60208 6300.00000 0 5164603.201 -9741935.639 23014525.696 10 0 60208 7200.00000 0 7842244.927 -8885275.789 22599138.053 10 0 60208 8100.00000 0 10499699.755 -8244909.002 21745389.001 10 0 60208 9000.00000 0 13068146.850 -7823305.152 20469744.093 10 0 60208 9900.00000 0 15480560.786 -7610697.356 18796852.092 10 0 60208 10800.00000 0 17674297.222 -7585634.236 16759077.462 10 0 60208 11700.00000 0 19593509.871 -7716037.470 14395883.037 10 0 60208 12600.00000 0 21191298.508 -7960720.518 11753073.734 10 0 60208 13500.00000 0 22431498.523 -8271304.796 8881914.997 10 0 60208 14400.00000 0 23290037.101 -8594452.687 5838142.289 10 0 60208 15300.00000 0 23755798.893 -8874322.998 2680880.443 10 0 60208 16200.00000 0 23830964.521 -9055144.730 -528506.249 10 0 60208 17100.00000 0 23530807.343 -9083799.578 -3727610.616 10 0 60208 18000.00000 0 22882956.801 -8912302.875 -6854201.998 10 0 60208 18900.00000 0 21926159.333 -8500076.713 -9847443.936 10 0 60208 19800.00000 0 20708589.214 -7815917.605 -12649085.599 10 0 60208 20700.00000 0 19285780.863 -6839573.957 -15204602.794 10 0 60208 21600.00000 0 17718270.251 -5562865.131 -17464265.559 10 0 60208 22500.00000 0 16069045.294 -3990293.430 -19384110.951 10 0 60208 23400.00000 0 14400913.111 -2139121.852 -20926801.661 10 0 60208 24300.00000 0 12773895.302 -38913.144 -22062353.631 10 0 60208 25200.00000 0 11242760.920 2269451.518 -22768718.608 10 0 60208 26100.00000 0 9854800.739 4735233.970 -23032210.551 10 0 60208 27000.00000 0 8647935.871 7299720.142 -22847767.987 10 0 60208 27900.00000 0 7649239.476 9898442.832 -22219047.664 10 0 60208 28800.00000 0 6873932.679 12463653.826 -21158348.066 10 0 60208 29700.00000 0 6324895.701 14926942.731 -19686364.688 10 0 60208 30600.00000 0 5992713.445 17221893.747 -17831782.073 10 0 60208 31500.00000 0 5856252.251 19286670.034 -15630710.802 10 0 60208 32400.00000 0 5883742.191 21066418.384 -13125980.559 10 0 60208 33300.00000 0 6034318.006 22515394.430 -10366303.157 10 0 60208 34200.00000 0 6259952.546 23598720.309 -7405322.026 10 0 60208 35100.00000 0 6507700.053 24293702.121 -4300566.831 10 0 60208 36000.00000 0 6722153.732 24590653.003 -1112333.800 10 0 60208 36900.00000 0 6848013.060 24493188.331 2097486.187 10 0 60208 37800.00000 0 6832651.843 24017981.807 5266608.720 10 0 60208 38700.00000 0 6628578.153 23193993.633 8333562.732 10 0 60208 39600.00000 0 6195681.988 22061204.130 11238879.585 10 0 60208 40500.00000 0 5503175.591 20668906.626 13926241.454 10 0 60208 41400.00000 0 4531144.424 19073631.700 16343567.085 10 0 60208 42300.00000 0 3271643.143 17336789.943 18444014.357 10 0 60208 43200.00000 0 1729290.038 15522131.810 20186880.945 10 0 60208 44100.00000 0 -78665.781 13693130.371 21538386.466 10 0 60208 45000.00000 0 -2122808.283 11910395.696 22472321.729 10 0 60208 45900.00000 0 -4362531.385 10229227.954 22970553.295 10 0 60208 46800.00000 0 -6747489.610 8697410.377 23023374.135 10 0 60208 47700.00000 0 -9219463.727 7353333.237 22629693.871 10 0 60208 48600.00000 0 -11714565.497 6224526.209 21797064.899 10 0 60208 49500.00000 0 -14165691.499 5326659.656 20541543.500 10 0 60208 50400.00000 0 -16505125.482 4663056.071 18887387.957 10 0 60208 51300.00000 0 -18667182.222 4224731.747 16866598.580 10 0 60208 52200.00000 0 -20590783.713 3990966.833 14518307.458 10 0 60208 53100.00000 0 -22221860.792 3930379.800 11888028.683 10 0 60208 54000.00000 0 -23515480.112 4002461.215 9026782.582 10 0 60208 54900.00000 0 -24437607.346 4159502.172 5990110.148 10 0 60208 55800.00000 0 -24966432.324 4348835.888 2836996.361 10 0 60208 56700.00000 0 -25093199.965 4515297.379 -371276.831 10 0 60208 57600.00000 0 -24822511.483 4603796.565 -3572325.329 10 0 60208 58500.00000 0 -24172082.653 4561894.980 -6703881.724 10 0 60208 59400.00000 0 -23171968.940 4342275.836 -9705013.646 10 0 60208 60300.00000 0 -21863289.945 3905001.532 -12517317.038 10 0 60208 61200.00000 0 -20296506.913 3219461.586 -15086060.183 10 0 60208 62100.00000 0 -18529326.088 2265927.145 -17361255.392 10 0 60208 63000.00000 0 -16624316.450 1036644.927 -19298636.883 10 0 60208 63900.00000 0 -14646342.430 -463576.892 -20860525.378 10 0 60208 64800.00000 0 -12659919.792 -2217316.775 -22016562.474 10 0 60208 65700.00000 0 -10726605.815 -4195025.160 -22744300.568 10 0 60208 66600.00000 0 -8902533.207 -6356027.576 -23029637.121 10 0 60208 67500.00000 0 -7236190.780 -8650004.263 -22867085.185 10 0 60208 68400.00000 0 -5766543.201 -11018885.022 -22259875.382 10 0 60208 69300.00000 0 -4521567.675 -13399080.546 -21219887.752 10 0 60208 70200.00000 0 -3517267.681 -15723957.457 -19767415.165 10 0 60208 71100.00000 0 -2757203.654 -17926454.088 -17930763.201 10 0 60208 72000.00000 0 -2232558.801 -19941728.067 -15745694.501 10 0 60208 72900.00000 0 -1922735.645 -21709725.524 -13254728.580 10 0 60208 73800.00000 0 -1796456.616 -23177564.936 -10506310.875 10 0 60208 74700.00000 0 -1813320.827 -24301636.399 -7553867.371 10 0 60208 75600.00000 0 -1925750.065 -25049329.031 -4454763.412 10 0 60208 76500.00000 0 -2081240.661 -25400314.830 -1269187.153 10 0 60208 77400.00000 0 -2224825.204 -25347335.920 1941020.335 10 0 60208 78300.00000 0 -2301639.329 -24896462.974 5113565.332 10 0 60208 79200.00000 0 -2259484.581 -24066814.783 8186908.637 10 0 60208 80100.00000 0 -2051278.720 -22889751.467 11101456.111 10 0 60208 81000.00000 0 -1637289.772 -21407575.783 13800709.612 10 0 60208 81900.00000 0 -987059.396 -19671797.324 16232356.336 10 0 60208 82800.00000 0 -80934.307 -17741032.466 18349275.944 10 0 60208 83700.00000 0 1088859.009 -15678627.749 20110446.636 10 0 60208 84600.00000 0 2517641.978 -13550105.550 21481733.465 10 0 60208 85500.00000 0 4188238.825 -11420537.967 22436544.405 10 0 60209 0.00000 0 6071461.442 -9351957.687 22956342.200 10 0 60209 900.00000 0 8127106.387 -7400911.577 23031002.867 10 0 60209 1800.00000 0 10305421.399 -5616260.533 22659013.595 10 0 60209 2700.00000 0 12548985.325 -4037312.499 21847507.131 10 0 60209 3600.00000 0 14794922.365 -2692368.272 20612130.833 10 0 60209 4500.00000 0 16977360.917 -1597738.823 18976752.603 10 0 60209 5400.00000 0 19030035.791 -757274.802 16973008.424 10 0 60209 6300.00000 0 20888926.316 -162427.442 14639699.153 10 0 60209 7200.00000 0 22494820.835 207161.899 12022047.217 10 0 60209 8100.00000 0 23795700.689 382568.491 9170826.581 10 0 60209 9000.00000 0 24748843.752 404033.446 6141382.091 10 0 60209 9900.00000 0 25322558.871 319020.949 2992556.750 10 0 60209 10800.00000 0 25497477.729 179965.946 -214452.359 10 0 60209 11700.00000 0 25267349.028 41808.042 -3417287.091 10 0 60209 12600.00000 0 24639300.785 -40583.182 -6553646.413 10 0 60209 13500.00000 0 23633558.971 -14981.420 -9562505.304 10 0 60209 14400.00000 0 22282633.833 165734.762 -12385309.773 10 0 60209 15300.00000 0 20630007.826 541337.522 -14967123.788 10 0 60209 16200.00000 0 18728380.266 1142318.913 -17257704.990 10 0 60209 17100.00000 0 16637542.579 1988356.623 -19212487.620 10 0 60209 18000.00000 0 14421973.622 3087242.383 -20793453.070 10 0 60209 18900.00000 0 12148256.155 4434319.399 -21969870.969 10 0 60209 19800.00000 0 9882422.915 6012453.547 -22718896.464 10 0 60209 20700.00000 0 7687343.406 7792540.418 -23026012.289 10 0 60209 21600.00000 0 5620260.478 9734527.661 -22885307.419 10 0 60209 22500.00000 0 3730579.158 11788910.371 -22299587.326 10 0 60209 23400.00000 0 2057999.359 13898637.344 -21280314.101 10 0 60209 24300.00000 0 631069.394 16001348.807 -19847377.989 10 0 60209 25200.00000 0 -533780.596 18031852.316 -18028705.086 10 0 60209 26100.00000 0 -1432686.408 19924733.487 -15859709.050 10 0 60209 27000.00000 0 -2074261.704 21616992.601 -13382597.686 10 0 60209 27900.00000 0 -2478979.589 23050596.947 -10645548.036 10 0 60209 28800.00000 0 -2678051.560 24174842.311 -7701766.203 10 0 60209 29700.00000 0 -2711852.679 24948425.002 -4608450.395 10 0 60209 30600.00000 0 -2627960.788 25341137.953 -1425677.593 10 0 60209 31500.00000 0 -2478893.765 25335120.214 1784764.250 10 0 60209 32400.00000 0 -2319641.346 24925607.982 4960575.525 10 0 60209 33300.00000 0 -2205096.516 24121156.166 8040152.344 10 0 60209 34200.00000 0 -2187495.461 22943321.754 10963778.446 10 0 60209 35100.00000 0 -2313974.509 21425822.644 13674778.607 10 0 60209 36000.00000 0 -2624347.300 19613207.465 16120611.534 10 0 60209 36900.00000 0 -3149196.021 17559092.109 18253881.484 10 0 60209 37800.00000 0 -3908357.228 15324036.465 20033249.738 10 0 60209 38700.00000 0 -4909866.212 12973149.528 21424229.061 10 0 60209 39600.00000 0 -6149404.757 10573522.003 22399846.536 10 0 60209 40500.00000 0 -7610276.171 8191592.393 22941162.734 10 0 60209 41400.00000 0 -9263909.754 5890555.043 23037637.713 10 0 60209 42300.00000 0 -11070874.890 3727916.782 22687337.086 10 0 60209 43200.00000 0 -12982363.926 1753302.598 21896974.172 10 0 60209 44100.00000 0 -14942083.552 6600.481 20681787.073 10 0 60209 45000.00000 0 -16888477.289 -1483478.237 19065252.416 10 0 60209 45900.00000 0 -18757187.736 -2700363.841 17078640.385 10 0 60209 46800.00000 0 -20483656.886 -3640078.832 14760418.606 10 0 60209 47700.00000 0 -22005756.566 -4311155.688 12155515.355 10 0 60209 48600.00000 0 -23266339.286 -4734025.622 9314455.357 10 0 60209 49500.00000 0 -24215602.576 -4939904.210 6292384.123 10 0 60209 50400.00000 0 -24813167.139 -4969221.144 3147999.296 10 0 60209 51300.00000 0 -25029780.784 -4869660.644 -57590.404 10 0 60209 52200.00000 0 -24848575.562 -4693895.916 -3262056.312 10 0 60209 53100.00000 0 -24265824.127 -4497114.111 -6403067.268 10 0 60209 54000.00000 0 -23291162.506 -4334437.532 -9419509.006 10 0 60209 54900.00000 0 -21947269.011 -4258351.330 -12252680.854 10 0 60209 55800.00000 0 -20269012.146 -4316247.841 -14847445.510 10 0 60209 56700.00000 0 -18302102.897 -4548192.756 -17153308.700 10 0 60209 57600.00000 0 -16101307.804 -4985008.872 -19125407.054 10 0 60209 58500.00000 0 -13728297.790 -5646759.567 -20725384.519 10 0 60209 59400.00000 0 -11249222.949 -6541697.073 -21922140.094 10 0 60209 60300.00000 0 -8732114.872 -7665720.794 -22692432.409 10 0 60209 61200.00000 0 -6244225.130 -9002369.236 -23021329.597 10 0 60209 62100.00000 0 -3849410.906 -10523346.517 -22902496.101 10 0 60209 63000.00000 0 -1605676.456 -12189561.817 -22338311.269 10 0 60209 63900.00000 0 437027.647 -13952638.523 -21339817.826 10 0 60209 64800.00000 0 2238656.656 -15756830.075 -19926501.618 10 0 60209 65700.00000 0 3770499.113 -17541262.399 -18125907.203 10 0 60209 66600.00000 0 5016121.461 -19242409.095 -15973097.004 10 0 60209 67500.00000 0 5971792.011 -20796695.745 -13509964.725 10 0 60209 68400.00000 0 6646368.322 -22143124.273 -10784416.543 10 0 60209 69300.00000 0 7060654.532 -23225807.373 -7849436.180 10 0 60209 70200.00000 0 7246257.504 -23996306.804 -4762052.236 10 0 60209 71100.00000 0 7243991.570 -24415677.618 -1582228.090 10 0 60209 72000.00000 0 7101900.583 -24456132.669 1628303.766 10 0 60209 72900.00000 0 6872981.953 -24102257.833 4807240.067 10 0 60209 73800.00000 0 6612709.667 -23351727.207 7892914.358 10 0 60209 74700.00000 0 6376461.551 -22215488.557 10825490.237 10 0 60209 75600.00000 0 6216959.792 -20717411.471 13548117.245 10 0 60209 76500.00000 0 6181832.879 -18893413.037 16008027.278 10 0 60209 77400.00000 0 6311401.864 -16790097.568 18157550.702 10 0 60209 78300.00000 0 6636784.109 -14462966.909 19955033.205 10 0 60209 79200.00000 0 7178394.411 -11974275.430 21365636.373 10 0 60209 80100.00000 0 7944906.612 -9390618.328 22362007.310 10 0 60209 81000.00000 0 8932719.720 -6780352.593 22924805.077 10 0 60209 81900.00000 0 10125951.570 -4210956.646 23043074.352 10 0 60209 82800.00000 0 11496961.276 -1746437.153 22714459.406 10 0 60209 83700.00000 0 13007379.797 555110.589 21945254.254 10 0 60209 84600.00000 0 14609606.939 2643688.543 20750287.707 10 0 60209 85500.00000 0 16248713.594 4479238.288 19152644.910 10 0 60210 0.00000 0 17864670.933 6033063.943 17183230.071 10 0 60210 900.00000 0 19394815.311 7288777.861 14880176.659 10 0 60210 1800.00000 0 20776444.387 8242728.095 12288118.150 10 0 60210 2700.00000 0 21949439.032 8903892.926 9457328.946 10 0 60210 3600.00000 0 22858798.882 9293245.041 6442753.833 10 0 60210 4500.00000 0 23456985.558 9442613.281 3302943.379 10 0 60210 5400.00000 0 23705974.133 9393090.097 98915.891 10 0 60210 6300.00000 0 23578925.508 9193052.404 -3107031.769 10 0 60210 7200.00000 0 23061408.112 8895880.064 -6252540.866 10 0 60210 8100.00000 0 22152116.215 8557469.339 -9276410.583 10 0 60210 9000.00000 0 20863053.459 8233647.470 -12119796.322 10 0 60210 9900.00000 0 19219172.858 7977598.933 -14727362.248 10 0 60210 10800.00000 0 17257487.614 7837413.401 -17048364.833 10 0 60210 11700.00000 0 15025689.502 7853860.258 -19037645.650 10 0 60210 12600.00000 0 12580332.474 8058484.764 -20656513.630 10 0 60210 13500.00000 0 9984657.362 8472107.177 -21873499.432 10 0 60210 14400.00000 0 7306148.567 9103788.906 -22664967.291 10 0 60210 15300.00000 0 4613924.761 9950309.815 -23015572.658 10 0 60210 16200.00000 0 1976072.281 10996179.139 -22918557.097 10 0 60210 17100.00000 0 -542967.912 12214179.820 -22375875.137 10 0 60210 18000.00000 0 -2884851.360 13566423.558 -21398151.029 10 0 60210 18900.00000 0 -4999517.967 15005872.363 -20004466.636 10 0 60210 19800.00000 0 -6847026.475 16478262.750 -18221984.887 10 0 60210 20700.00000 0 -8398960.337 17924351.754 -16085416.356 10 0 60210 21600.00000 0 -9639347.824 19282390.438 -13636339.539 10 0 60210 22500.00000 0 -10565059.627 20490720.963 -10922388.180 10 0 60210 23400.00000 0 -11185669.091 21490388.048 -7996321.636 10 0 60210 24300.00000 0 -11522782.791 22227655.065 -4914996.565 10 0 60210 25200.00000 0 -11608871.371 22656318.985 -1738260.115 10 0 60210 26100.00000 0 -11485651.434 22739726.894 1472213.547 10 0 60210 27000.00000 0 -11202088.106 22452409.377 4654120.547 10 0 60210 27900.00000 0 -10812103.591 21781262.199 7745735.016 10 0 60210 28800.00000 0 -10372089.258 20726226.751 10687103.640 10 0 60210 29700.00000 0 -9938326.720 19300440.718 13421203.952 10 0 60210 30600.00000 0 -9564426.961 17529852.577 15895044.209 10 0 60210 31500.00000 0 -9298895.454 15452315.839 18060683.956 10 0 60210 32400.00000 0 -9182925.727 13116200.463 19876156.187 10 0 60210 33300.00000 0 -9248514.024 10578578.708 21306273.998 10 0 60210 34200.00000 0 -9516974.187 7903060.177 22323306.919 10 0 60210 35100.00000 0 -9997915.148 5157364.989 22907514.579 10 0 60210 36000.00000 0 -10688724.167 2410734.709 23047527.965 10 0 60210 36900.00000 0 -11574577.999 -268712.788 22740571.232 10 0 60210 37800.00000 0 -12628982.310 -2816576.103 21992519.814 10 0 60210 38700.00000 0 -13814817.797 -5174604.427 20817793.405 10 0 60210 39600.00000 0 -15085850.368 -7292873.031 19239085.267 10 0 60210 40500.00000 0 -16388643.340 -9131610.694 17286932.267 10 0 60210 41400.00000 0 -17664792.666 -10662603.783 14999132.883 10 0 60210 42300.00000 0 -18853392.327 -11870118.987 12420023.419 10 0 60210 43200.00000 0 -19893626.996 -12751306.556 9599625.443 10 0 60210 44100.00000 0 -20727383.219 -13316067.496 6592680.139 10 0 60210 45000.00000 0 -21301769.032 -13586390.495 3457587.825 10 0 60210 45900.00000 0 -21571435.308 -13595186.810 255273.023 10 0 60210 46800.00000 0 -21500600.052 -13384672.557 -2952002.727 10 0 60210 47700.00000 0 -21064689.082 -13004367.206 -6101856.702 10 0 60210 48600.00000 0 -20251522.568 -12508793.540 -9133005.134 10 0 60210 49500.00000 0 -19061996.055 -11954977.146 -11986463.043 10 0 60210 50400.00000 0 -17510225.965 -11399852.168 -14606699.472 10 0 60210 51300.00000 0 -15623152.370 -10897684.051 -16942724.819 10 0 60210 52200.00000 0 -13439614.759 -10497619.235 -18949088.450 10 0 60210 53100.00000 0 -11008938.970 -10241466.254 -20586766.685 10 0 60210 54000.00000 0 -8389093.945 -10161802.684 -21823923.701 10 0 60210 54900.00000 0 -5644495.120 -10280488.404 -22636530.590 10 0 60210 55800.00000 0 -2843545.938 -10607648.193 -23008830.731 10 0 60210 56700.00000 0 -56019.810 -11141166.752 -22933642.792 10 0 60210 57600.00000 0 2649608.729 -11866717.411 -22412495.898 10 0 60210 58500.00000 0 5208772.913 -12758323.240 -21455594.740 10 0 60210 59400.00000 0 7563254.744 -13779426.802 -20081615.692 10 0 60210 60300.00000 0 9663357.289 -14884423.334 -18317338.199 10 0 60210 61200.00000 0 11469718.836 -16020592.654 -16197118.849 10 0 60210 62100.00000 0 12954694.560 -17130348.281 -13762218.539 10 0 60210 63000.00000 0 14103249.526 -18153708.944 -11059995.986 10 0 60210 63900.00000 0 14913327.320 -19030888.236 -8142983.419 10 0 60210 64800.00000 0 15395680.615 -19704893.227 -5067862.660 10 0 60210 65700.00000 0 15573172.538 -20124022.497 -1894361.673 10 0 60210 66600.00000 0 15479579.846 -20244158.258 1315906.658 10 0 60210 67500.00000 0 15157949.794 -20030756.015 4500640.731 10 0 60210 68400.00000 0 14658581.131 -19460447.957 7598057.998 10 0 60210 69300.00000 0 14036715.312 -18522192.565 10548090.742 10 0 60210 70200.00000 0 13350035.891 -17217922.030 13293546.729 10 0 60210 71100.00000 0 12656081.812 -15562660.074 15781212.511 10 0 60210 72000.00000 0 12009683.630 -13584104.877 17962878.419 10 0 60210 72900.00000 0 11460530.404 -11321694.016 19796266.017 10 0 60210 73800.00000 0 11050969.270 -8825189.665 21245840.852 10 0 60210 74700.00000 0 10814129.807 -6152842.092 22283495.495 10 0 60210 75600.00000 0 10772451.596 -3369206.673 22889090.463 10 0 60210 76500.00000 0 10936676.619 -542703.814 23050843.092 10 0 60210 77400.00000 0 11305348.761 2256978.304 22765557.223 10 0 60210 78300.00000 0 11864841.743 4961531.852 22038689.297 10 0 60210 79200.00000 0 12589914.885 7506619.862 20884249.295 10 0 60210 80100.00000 0 13444774.200 9834302.794 19324537.849 10 0 60210 81000.00000 0 14384595.258 11895201.451 17389723.780 10 0 60210 81900.00000 0 15357444.875 13650307.064 15117269.182 10 0 60210 82800.00000 0 16306521.743 15072363.719 12551212.157 10 0 60210 83700.00000 0 17172622.442 16146765.805 9741320.077 10 0 60210 84600.00000 0 17896729.337 16871933.200 6742128.973 10 0 60210 85500.00000 0 18422611.266 17259148.589 3611887.166 99